Profile of Voice Seeker 66723

These are the public details of this voice seeker.

66723
Confidential (why?)
2010-07-24

97 projects

1 projects
95

88.10%
14 days ago
• A Voice123 Team member HAS NOT spoken over the phone to this voice-seeker about his/her projects, messages, or invitations.
• A Voice123 Team member HAS communicated via email with this voice-seeker about his/her projects, messages, or invitations.
List of Projects Posted with Voice123's SmartCast Enabled:
ID Name Posted Deadline Auditions/
Proposals Received
% of Auditions/
Proposals
Opened
ZD3416973 Graduation Robes and photography company videos 2017-08-02 20:19:18 GMT 2017-08-12 16:00:00 GMT 17 100.00%
ZD3368584 Music app explainer animation 2017-07-28 21:07:41 GMT 2017-07-31 15:00:00 GMT 30 100.00%
ZD3254145 Motorbike Insurance sales video 2017-07-20 14:58:23 GMT 2017-07-24 10:00:00 GMT 39 69.23%
ZD3163880 UK TV commercial for cosmetic surgery 2017-07-10 16:52:55 GMT 2017-07-11 16:00:00 GMT 10 100.00%
ZD3076328 Cyber security animation for insurance company 2017-06-30 17:02:01 GMT 2017-07-03 15:00:00 GMT 30 100.00%
ZD2546673 Animation for airport meet and greet service 2017-05-23 14:20:02 GMT 2017-05-30 10:00:00 GMT 27 100.00%
ZD2436369 Eye surgery company TV advert 2017-05-08 15:08:49 GMT 2017-05-09 09:00:00 GMT 22 86.36%
ZD2436356 Eye surgery company TV advert 2017-05-08 15:05:02 GMT 2017-05-08 10:05:57 GMT 0 N/A
ZD2416758 Eye surgery company TV advert Call to Action 2017-05-05 21:44:13 GMT 2017-05-05 17:19:17 GMT 1 100.00%
ZD2392239 Graduation Robes and photography company 2017-05-03 19:07:11 GMT 2017-05-09 17:00:00 GMT 20 0.00%
ZD2264995 Graduation Robes and photography company 2017-04-19 16:48:48 GMT 2017-04-24 10:00:00 GMT 21 100.00%
ZD2264982 Graduation Robes and photography company 2017-04-19 16:44:24 GMT 2017-04-19 11:49:34 GMT 0 N/A
ZD2264969 Explainer for a supranational legal NFPO 2017-04-19 16:40:51 GMT 2017-04-21 20:00:00 GMT 34 100.00%
ZD2067657 Energy Company Sales animation 2017-03-06 17:08:13 GMT 2017-03-09 10:00:00 GMT 43 100.00%
ZD1954590 Fleet tracking system for smartphones onboarding 2017-02-09 15:24:13 GMT 2017-02-14 17:00:00 GMT 13 76.92%
ZD1928441 Fleet tracking system for smartphones onboarding 2017-02-03 20:11:09 GMT 2017-02-06 10:00:00 GMT 22 36.36%
ZD1928446 Fleet tracking system for smartphones onboarding 2017-02-03 20:11:35 GMT 2017-02-03 15:12:18 GMT 0 N/A
ZD1914298 Label printing company sales video 2017-01-31 17:47:11 GMT 2017-02-02 09:00:00 GMT 28 78.57%
ZD1914285 Label printing company sales video 2017-01-31 17:43:13 GMT 2017-01-31 12:45:25 GMT 0 N/A
ZD1864651 Fleet tracking system for smartphones onboarding 2017-01-20 16:01:58 GMT 2017-01-23 15:00:00 GMT 30 86.67%
ZD1708622 Christmas Lights history animation 2016-12-16 16:51:21 GMT 2016-12-18 12:00:00 GMT 25 100.00%
ZD1708623 Christmas Lights history animation 2016-12-16 16:51:43 GMT 2016-12-18 12:00:00 GMT 10 100.00%
ZD1708597 Christmas Lights history animation 2016-12-16 16:43:57 GMT 2016-12-18 12:00:00 GMT 17 100.00%
ZD1327692 UK TV commercial for cosmetic surgery 2016-09-22 14:59:50 GMT 2016-09-23 12:00:00 GMT 30 100.00%
ZD1287465 Infotainment and Luggage Alert System Web Video 2016-09-13 18:26:03 GMT 2016-09-14 11:00:00 GMT 18 100.00%
ZD1162434 Fleet tracking system for smartphones alternative 2016-08-16 18:14:40 GMT 2016-08-18 23:00:00 GMT 24 91.67%
ZD1162421 Fleet tracking system for smartphones 2016-08-16 18:10:56 GMT 2016-08-18 23:00:00 GMT 17 70.59%
ZD1162410 Fleet tracking system for smartphones 2016-08-16 18:07:23 GMT 2016-08-16 13:08:21 GMT 0 N/A
ZD1161964 Fleet tracking system for smartphones 2 2016-08-16 15:43:19 GMT 2016-08-16 12:22:12 GMT 0 N/A
ZD1161946 Fleet tracking system for smartphones 2016-08-16 15:38:13 GMT 2016-08-16 12:22:55 GMT 1 100.00%
ZD978379 Festival Vox Pops 2016-07-06 18:42:37 GMT 2016-07-07 23:00:00 GMT 16 81.25%
ZD943014 Fleet tracking system for smartphones 2016-06-28 19:55:26 GMT 2016-07-07 16:00:00 GMT 30 100.00%
ZD852698 Animation for Addiction Help and Support Charity 2016-06-08 15:39:25 GMT 2016-06-13 10:00:00 GMT 25 100.00%
ZD852524 Explainer for Office Space property company 2016-06-08 14:42:33 GMT 2016-06-17 14:00:00 GMT 28 100.00%
ZD844171 Fleet tracking system for smartphones 2016-06-06 18:58:30 GMT 2016-06-15 14:00:00 GMT 25 100.00%
ZD799300 Brand Transformation for Private Physiotherapy 2016-05-27 19:59:55 GMT 2016-06-08 12:00:00 GMT 30 100.00%
ZD729087 Frozen food online promo 2016-05-11 22:12:21 GMT 2016-05-21 18:00:00 GMT 11 100.00%
ZD683328 Kitchen Supplier B2B animation 2016-03-16 14:52:59 GMT 2016-03-25 09:00:00 GMT 25 100.00%
ZD682023 Manager App Explainer 2016-03-09 21:53:29 GMT 2016-03-11 09:00:00 GMT 20 100.00%
ZD680804 Kitchen Supplier B2B animation 2016-03-02 17:22:03 GMT 2016-03-04 18:00:00 GMT 25 44.00%
ZD680803 Kitchen Supplier B2B animation 2016-03-02 17:18:17 GMT 2016-03-02 12:22:40 GMT 0 N/A
ZD680634 Product explainer for building merchant 2016-03-01 19:39:26 GMT 2016-03-09 22:00:00 GMT 23 100.00%
ZD680153 Shopping Loyalty Programme 2016-02-26 16:21:16 GMT 2016-02-26 18:00:00 GMT 1 100.00%
ZD679150 Explainer Video for Leading Brand 2016-02-22 19:58:57 GMT 2016-02-23 17:00:00 GMT 29 100.00%
ZD677272 Workforce App Explainer 2016-02-10 19:58:02 GMT 2016-02-12 15:00:00 GMT 30 100.00%
ZD668726 Internal Comms Animation for High Profile Client 2015-12-03 17:09:27 GMT 2015-12-11 09:00:00 GMT 15 80.00%
ZD667132 Animated Wifi Service Explainer 2015-11-20 19:44:49 GMT 2015-11-23 14:00:00 GMT 15 100.00%
ZD666929 Manchester Property Development 2015-11-19 17:46:57 GMT 2015-11-23 17:00:00 GMT 36 88.89%
ZD602981 Software Overview with additional projects 2015-09-28 20:38:50 GMT 2015-09-29 17:00:00 GMT 25 100.00%
ZD599039 Creative Promo 2015-09-02 21:03:57 GMT 2015-09-04 17:00:00 GMT 15 33.33%
ZD598893 HR Promotional Video 2015-09-01 20:07:12 GMT 2015-09-04 16:00:00 GMT 21 28.57%
ZD596272 Bakery Kids Tour 2015-08-10 20:52:48 GMT 2015-08-14 16:00:00 GMT 20 100.00%
ZD594170 Good Energy 2015-07-24 20:48:05 GMT 2015-07-28 16:00:00 GMT 24 45.83%
ZD593783 A more rewarding kind of Car Insurance 2015-07-22 17:35:34 GMT 2015-08-03 09:00:00 GMT 37 100.00%
ZD483069 Transforming Work promo video 2015-05-27 17:37:29 GMT 2015-05-28 12:00:00 GMT 20 35.00%
ZD479220 Car Finance 2015-05-26 17:16:01 GMT 2015-06-08 12:00:00 GMT 21 100.00%
ZD479215 Switching Energy for Good 2015-05-26 17:15:04 GMT 2015-06-08 12:00:00 GMT 21 100.00%
ZD426509 Car Finance 2015-05-11 18:37:56 GMT 2015-05-12 12:00:00 GMT 20 100.00%
ZD375827 Switching Energy for Good 2015-04-24 20:20:54 GMT 2015-04-28 16:00:00 GMT 20 100.00%
ZD296195 Payments Explainer Video 2015-03-25 19:40:49 GMT 2015-03-27 14:00:00 GMT 21 100.00%
ZD295942 Payments Explainer 2015-03-25 19:27:37 GMT 2015-03-25 16:16:06 GMT 3 100.00%
ZD284832 Sponsor bumpers for The Royals on UK TV channel 2015-03-20 21:40:39 GMT 2015-03-21 15:00:00 GMT 13 100.00%
ZD217992 Educational App Explainer 2015-02-05 19:10:37 GMT 2015-02-06 09:00:00 GMT 12 50.00%
ZD217895 Educational App Explainer 2015-02-05 18:33:56 GMT 2015-02-05 14:12:32 GMT 0 N/A
ZD217882 Educational App Explainer GMT 2015-02-05 11:57:38 GMT 0 N/A
ZD206884 Educational App Explainer 2015-01-26 22:02:20 GMT 2015-02-05 12:00:00 GMT 40 100.00%
ZD175200 Urban Bubble 2014-12-17 03:37:33 GMT 2014-12-19 22:00:00 GMT 16 43.75%
ZD169539 Property Investment Explainer Video 2014-12-08 19:11:43 GMT 2014-12-10 23:00:00 GMT 50 92.00%
ZD151680 Transform Celebration 2014-10-13 05:44:53 GMT 2014-10-13 21:00:00 GMT 15 100.00%
ZD149467 HYDE GROUP 2014-09-25 22:01:44 GMT 2014-09-29 10:00:00 GMT 26 100.00%
ZD149468 40 Year Animation 2014-09-25 22:03:07 GMT 2014-09-30 21:00:00 GMT 26 100.00%
ZD146075 Fraud Protection System 2014-09-03 22:06:15 GMT 2014-09-05 17:00:00 GMT 26 100.00%
ZD133850 Block Management 2014-06-27 21:18:51 GMT 2014-07-03 17:00:00 GMT 51 96.08%
ZD130175 Moral Revolution 2014-06-06 01:39:16 GMT 2014-06-10 01:00:00 GMT 40 100.00%
ZD118015 Internal Comms HR 2014-04-23 21:43:53 GMT 2014-04-24 17:00:00 GMT 22 27.27%
ZD117524 Project Ad51 2014-04-22 04:38:55 GMT 2014-04-23 17:00:00 GMT 37 81.08%
ZD112451 AFG 2014-04-01 20:14:23 GMT 2014-04-04 19:00:00 GMT 40 95.00%
ZD106047 Training DVD Promo 2014-03-03 18:56:48 GMT 2014-03-05 12:25:25 GMT 37 100.00%
ZD88218 Local VOD commercial 2013-12-18 15:52:03 GMT 2013-12-20 15:00:00 GMT 23 100.00%
ZD82587 MAP VO 2013-12-03 13:26:31 GMT 2013-12-06 14:00:00 GMT 0 N/A
ZD58144 LICC Promo 2013-10-09 21:50:48 GMT 2013-10-10 12:00:00 GMT 0 N/A
ZDLTK12138032701207X Estate Agents 2013-08-14 15:39:20 GMT 2013-08-19 23:00:00 GMT 0 N/A
ZDLTK12138031706072X Conference Movie Trailer Style video 2013-07-10 17:17:10 GMT 2013-07-11 17:00:00 GMT 0 N/A
ZDLTK12138031201107X Maintify 2013-07-01 13:29:36 GMT 2013-07-03 23:00:00 GMT 0 N/A
ZDLTK12138028440611X Emerge Promo 2013-06-19 13:34:13 GMT 2013-06-21 10:00:00 GMT 0 N/A
ZDLTK12138027103930X Tent Poem 2013-06-11 18:12:30 GMT 2013-06-13 18:00:00 GMT 0 N/A
ZDLTK1213805894422X Ecard youthful male or female 2013-05-21 14:00:43 GMT 2013-05-23 16:00:00 GMT 0 N/A
ZDLTK1213805854004X E card senior male 2013-05-20 15:31:03 GMT 2013-05-22 14:00:00 GMT 0 N/A
ZDLTK12138024115X Northwards Brief 2013-04-22 13:30:32 GMT 2013-04-24 17:00:00 GMT 0 N/A
ZDLTK12147026110X Northwards 2013-04-16 15:32:43 GMT 2013-04-19 17:00:00 GMT 0 N/A
ZDLTK53308653646X Welcome to Yorkshire 2013-02-20 16:38:17 GMT 2013-02-22 16:00:00 GMT 0 N/A
ZDLTK53308264013X MUSS 2013-01-08 14:54:51 GMT 2013-01-09 16:00:00 GMT 0 N/A
ZDLTK53306343870X Scottish Rugby 2012-07-23 17:17:22 GMT 2012-07-27 17:00:00 GMT 0 N/A
ZDLTK494023488191X Furnace Corporate Video 2011-12-14 14:49:28 GMT 2011-12-19 14:00:00 GMT 0 N/A
ZDLTK494014419616X University VO 2011-08-04 15:19:56 GMT 2011-08-04 15:37:43 GMT 0 N/A
ZDLTK494014419776X University VO Updated 2011-08-04 15:36:45 GMT 2011-08-08 15:00:00 GMT 0 N/A
ZDLTK152042971381X Nottingham Playhouse 2010-07-24 15:28:29 GMT 2010-07-28 12:00:00 GMT 0 N/A

Note: Although Voice123 tries to establish the legitimacy of all voice seekers, you are responsible for conducting your own investigation into any and all claims made by prospective voice seekers, agents and/or clients. You assume all liability for use of any information you find through Voice123, or any of its publications.